Regional Weather Roundup
Issued by NWS

Home | Current Version | Previous Version | Text Only | Print | Product List | Glossary On
Versions: 1 2 3 4 5 6 7 8 9 10 11 12 13 14 15 16 17 18 19 20 21 22 23 24 25 26 27 28 29 30 31 32 33 34 35 36 37 38 39 40 41 42 43 44 45 46 47 48 49 50
000
ASCA44 KEWX 010120
RWRMX

LATIN AMERICA AND CARIBBEAN REGIONAL WEATHER ROUNDUP
NATIONAL WEATHER SERVICE AUSTIN/SAN ANTONIO TX
700 PM CST SAT JAN 31 2015

NOTE: "FAIR" INDICATED FEW OR NO CLOUDS BELOW 12,000 FEET WITH NO
SIGNIFICANT WEATHER AND/OR OBSTRUCTIONS TO VISIBILITY.

BAJA CALIFORNIA

CITY           SKY/WX    TMP DP  RH WIND       PRES   REMARKS
LORETO         MOCLDY    66  54  63 W12       29.84R
LA PAZ         MOCLDY    72  55  56 SW9       29.89R
MEXICALI       MOCLDY    68  45  42 N13       29.87R
S.J. DEL CABO  PTCLDY    72  63  73 N8        29.87S
TIJUANA        PTCLDY    61  50  67 W7        29.93R

NORTHWESTERN MEXICO

CITY           SKY/WX    TMP DP  RH WIND       PRES   REMARKS
CULIACAN       MOCLDY    79  61  53 NW6       29.86R
DURANGO        MOCLDY    54  41  62 S7        30.06R
GUAYMAS        PTCLDY    68  57  68 SW12      29.80R
HERMOSILLO     PTCLDY    68  55  64 CALM      29.86R
CD. JUAREZ     CLOUDY    55  43  62 W10       29.85R
LOS MOCHIS     PTCLDY    70  59  68 S16       29.85S
OBREGON        PTCLDY    66  55  68 W3        29.81S

NORTHEASTERN MEXICO

CITY           SKY/WX    TMP DP  RH WIND       PRES   REMARKS
CHIHUAHUA      CLOUDY    54  34  47 W6        29.97R
MATAMOROS      CLOUDY    68  66  94 CALM      30.00R
MONTERREY      MOCLDY    61  59  94 CALM      29.93S
NUEVO LAREDO   CLOUDY    66  61  82 S12       29.89F
PIEDRAS NEGRAS FOG       57  55  94 CALM      29.90F VSB 1
REYNOSA        MOCLDY    68  57  68 SE12      29.96R
SALTILLO       CLOUDY    57  48  72 CALM      30.03F
TORREON        MOCLDY    63  52  67 E9        29.91R
CD. VICTORIA   PTCLDY    68  54  60 S9        29.92R

WESTERN MEXICO

CITY           SKY/WX    TMP DP  RH WIND       PRES   REMARKS
AGUASCALIENTES CLEAR     63  30  29 SW14      30.10R
COLIMA         MOCLDY    82  61  47 W12       29.98S
DEL BAJIO      MOCLDY    66  39  37 W9        30.17R
GUADALAJARA    MOCLDY    64  45  48 S7        30.07S
MANZANILLO     PTCLDY    81  73  78 W6        29.82S
MAZATLAN       MOCLDY    72  61  68 S7        29.84S
P. VALLARTA    PTCLDY    79  70  73 W9        29.84S
URUAPAN        MOCLDY    64  59  82 CALM      30.11R
ZACATECAS      PTCLDY    48  36  61 W12       30.12S WCI  43

CENTRAL MEXICO

CITY           SKY/WX    TMP DP  RH WIND       PRES   REMARKS
CUERNAVACA     CLEAR     73  37  27 CALM      30.04R
MEXICO CITY    CLEAR     63  36  36 SE17      30.19R
MORELIA        PTCLDY    64  46  52 S5        30.13R
POZA RICA      CLOUDY    66  61  82 E7        29.97S
PUEBLA         PTCLDY    55  30  38 S12       30.21R
QUERETARO      PTCLDY    66  41  39 SW14      30.15R
S. LUIS POTOSI PTCLDY    66  30  26 SW9       30.06R
TAMPICO        PTCLDY    66  61  82 SE8       29.95S
TOLUCA         PTCLDY    55  32  41 S9        30.27R

SOUTHERN MEXICO

CITY           SKY/WX    TMP DP  RH WIND       PRES   REMARKS
ACAPULCO       CLEAR     81  72  74 W9        29.85R
B. DE HUATULCO PTCLDY    77  68  73 CALM      29.92
OAXACA         CLEAR     68  41  37 SE9       30.11R
P. ESCONDIDO   PTCLDY    79  72  78 CALM      30.02R
VERACRUZ       CLEAR     70  63  78 SE6       29.95R
ZIHUATANEJO    PTCLDY    81  73  78 SW3       29.88R

YUCATAN PENINSULA

CITY           SKY/WX    TMP DP  RH WIND       PRES   REMARKS
CAMPECHE       MOCLDY    75  66  73 N9        29.97R
CANCUN         PTCLDY    72  61  68 SE6       30.09R
CHETUMAL       CLOUDY    75  70  83 NE6       30.03R
CD. DEL CARMEN CLEAR     75  68  78 NE6       29.97R
COZUMEL        CLEAR     66  61  82 E6        30.07S
MERIDA         PTCLDY    73  59  60 NE6       30.01R
MINATITLAN     CLEAR     70  68  94 N9        29.92R
TAPACHULA      CLEAR     81  73  78 CALM      29.87R
TUX. GUTIERREZ CLEAR     73  59  60 NW10      29.93R
VILLAHERMOSA   CLEAR     73  66  78 NE9       29.96R

CENTRAL AMERICA

CITY           SKY/WX    TMP DP  RH WIND       PRES   REMARKS
MANAGUA        PTCLDY    84  66  54 E16       29.83S

CARIBBEAN

CITY           SKY/WX    TMP DP  RH WIND       PRES   REMARKS
ARUBA          PTCLDY    79  73  83 E18       29.89S
CURACAO        PTCLDY    81  75  83 E14       29.94R
KINGSTON       PTCLDY    79  66  65 N12       29.97R
NASSAU         PTCLDY    68  52  56 NE12      30.24R
SAN JUAN       PTCLDY    79  72  78 E15       30.05R
SANTO DOMINGO  MOCLDY    72  70  94 NE12      30.03R
ST. KITTS      PTCLDY    77  70  78 N9        30.03R
ST. MAARTEN    PTCLDY    77  70  78 NE9       30.03R
ST. THOMAS     CLEAR     77  68  73 NE14      30.04

$$



USA.gov is the U.S. government's official web portal to all federal, state and local government web resources and services.